Location: Buckenweiler
(49.0667°N, 10.2500°E)
Time: 01:43:24
(UTC+00:00)

CORIOLIS - Pass Details

Date: 18 January 2026
Orbit: 816 x 835 km, 98.7° (Epoch: 6 February)

Event Time Altitude Azimuth Distance (km) Brightness Sun altitude
Rises 06:21:37 0° 11° (N) 3,398 7.2 -7.3°
Reaches altitude 10° 06:24:01 10° 7° (N) 2,459 6.5 -6.9°
Maximum altitude 06:29:18 53° 292° (WNW) 1,020 4.3 -6.1°
Drops below altitude 10° 06:34:32 10° 217° (SW) 2,437 6.5 -5.3°
Sets 06:36:55 0° 212° (SSW) 3,365 7.3 -5.0°
